Location: *
(46.1200°N, 11.2700°E)
Time: 08:07:32
(UTC+00:00)

DMSP B5D2-2 - Pass Details

Date: 02 March 2021
Orbit: 789 x 806 km, 98.3° (Epoch: 19 April)

Event Time Altitude Azimuth Distance (km) Brightness Sun altitude
Rises 18:34:22 0° 16° (NNE) 3,312 7.2 -16.6°
Reaches altitude 10° 18:36:44 10° 19° (NNE) 2,375 6.4 -17.0°
Maximum altitude 18:41:57 66° 102° (ESE) 868 4.0 -17.9°
Drops below altitude 10° 18:47:06 10° 184° (S) 2,349 6.5 -18.8°
Sets 18:49:26 0° 187° (S) 3,272 7.2 -19.2°
